Tracking 22124 objects as of 25-Jan-2021
HD Live streaming from Space Station
objects crossing your sky now

STARLINK-1239

Track STARLINK-1239 now!
10-day predictions
STARLINK-1239 is classified as:


NORAD ID: 45193
Int'l Code: 2020-012R
Perigee: 553.3 km
Apogee: 555.3 km
Inclination: 53.1 °
Period: 95.6 minutes
Semi major axis: 6925 km
RCS: Unknown
Launch date: February 17, 2020
Source: United States (US)
Launch site: AIR FORCE EASTERN TEST RANGE (AFETR)
aabbcc
Your satellite tracking list
Your tracking list is empty




NASA's NSSDC Master Catalog

Two Line Element Set (TLE):
1 45193U 20012R   21024.77082233 -.00001260  00000-0 -65662-4 0  9998
2 45193  53.0581 160.9842 0001463  82.3397 277.7758 15.06409316 52940
Source of the keplerian elements: AFSPC